Location: STAR School
(35.3054°N, 111.2976°W)
Time: 04:06:21
(UTC-07:00)

Courier 1B Rocket - Visible Passes

Search period start: 24 May 2019 00:00
Search period end: 03 June 2019 00:00
Orbit: 920 x 1202 km, 28.3° (Epoch: 23 May)

Date Brightness Start Highest point End Pass type
(mag) Time Alt. Az. Time Alt. Az. Time Alt. Az.
24 May 6.1 20:06:49 10° W 20:13:51 38° SSW 20:20:17 11° SE visible
24 May 6.9 22:02:04 10° WSW 22:06:38 17° SSW 22:06:38 17° SSW visible
25 May 6.6 20:59:53 10° WSW 21:05:49 24° SSW 21:09:15 18° S visible
26 May 6.5 19:58:09 10° W 20:04:49 31° SSW 20:11:18 10° SE visible
26 May 7.2 21:55:03 10° SW 21:57:36 12° SSW 21:58:15 12° SSW visible
27 May 7.0 20:51:49 10° WSW 20:56:42 18° SSW 21:00:54 11° S visible
29 May 7.3 20:44:46 10° SW 20:47:33 12° SSW 20:50:18 10° S visible
